Content
SEND FEEDBACK

Daily
Averages
Monthly
Summary
Turkey

GAZIANTEP, TURKEY


Home > Middle East > Turkey
Elevation: 2805 feet     Latitude: 37 05N     Longitude: 037 22E

WEATHER
 
SELECT A DAY
Number of Records: 206,667;   Date Range: 7/1/96 - 7/7/14
 
SHARE

PRINT THIS DATA

[ ← Previous Day ]
WEATHER ALMANAC - MARCH 3, 2013
[ Next Day → ]
[ °C ]   °F
Weather ElementAverageHighLow
Temperature48 °F55.4 °F (1:20 pm)37.4 °F (12:50 am)
Dewpoint36.8 °F39.2 °F (11:50 am)33.8 °F (1:20 am)
Humidity66.2 %93 % (12:50 am)46 % (2:00 pm)
Barometer30.00 in30.14 in (8:00 am)29.83 in (11:50 pm)
Wind Speed10.7 mph20.7 mph (12:50 pm)
Weather ElementAverage
Visibility6.2 mi
Wind DirectionE (90.6 °)

Weather ElementTotal
Precipitation---
Heating Degree Days18.6 (Base 65)
Averaged from 51 records on March 3, 2013
WEATHER CONDITIONS BREAKOUT
WIND DIRECTION BREAKOUT
WEATHER BY HOUR - MARCH 3, 2013
[ °C ]   °F
Local TimeTemperatureDewpointHumidityBarometerVisibilityWind DirectionWind SpeedGust SpeedPrecipitationEventsConditions
12:50 AM37.4 °F35.6 °F93 %30.12 inWNW (290°)4.6 mphClear
1:20 AM37.4 °F33.8 °F87 %30.09 inCalmClear
1:50 AM39.2 °F37.4 °F93 %30.09 inNW (320°)3.5 mphClear
2:00 AM39.0 °F36.0 °F86 %30.12 in6.0 miNW (320°)3.5 mph
2:20 AM39.2 °F35.6 °F87 %30.09 inNorth (360°)3.5 mphClear
2:50 AM39.2 °F35.6 °F87 %30.09 inCalmClear
3:20 AM37.4 °F35.6 °F93 %30.09 inVariable1.2 mphClear
3:50 AM37.4 °F35.6 °F93 %30.09 inVariable1.2 mphClear
4:20 AM39.2 °F35.6 °F87 %30.09 inNNW (330°)3.5 mphClear
4:50 AM37.4 °F33.8 °F87 %30.09 inVariable1.2 mphClear
5:20 AM39.2 °F35.6 °F87 %30.09 inNorth (350°)4.6 mphClear
5:50 AM39.2 °F35.6 °F87 %30.09 inVariable2.3 mphClear
6:20 AM41.0 °F35.6 °F81 %30.09 inVariable2.3 mphClear
6:50 AM42.8 °F35.6 °F76 %30.09 inVariable1.2 mphClear
7:20 AM44.6 °F37.4 °F76 %30.09 inVariable2.3 mphClear
7:50 AM46.4 °F35.6 °F66 %30.09 inNE (50°)4.6 mphClear
8:00 AM47.0 °F36.0 °F54 %30.14 in6.0 miNE (50°)4.6 mphPartly Cloudy
8:20 AM48.2 °F35.6 °F62 %30.09 inEast (90°)6.9 mphClear
8:50 AM48.2 °F35.6 °F62 %30.09 inENE (70°)10.4 mphClear
9:20 AM48.2 °F35.6 °F62 %30.09 inEast (80°)13.8 mphClear
9:50 AM50.0 °F37.4 °F62 %30.09 in6.2 miEast (80°)13.8 mphMostly Cloudy
10:20 AM50.0 °F37.4 °F62 %30.09 in6.2 miEast (80°)13.8 mphMostly Cloudy
10:50 AM50.0 °F37.4 °F62 %30.04 in6.2 miEast (80°)17.3 mphMostly Cloudy
11:20 AM51.8 °F37.4 °F58 %30.06 in6.2 miENE (70°)16.1 mphMostly Cloudy
11:50 AM51.8 °F39.2 °F62 %30.04 in6.2 miENE (70°)15.0 mphMostly Cloudy
12:20 PM53.6 °F37.4 °F54 %30.01 in6.2 miENE (70°)18.4 mphMostly Cloudy
12:50 PM53.6 °F39.2 °F58 %29.98 in6.2 miENE (70°)20.7 mphMostly Cloudy
1:20 PM55.4 °F37.4 °F51 %29.98 in6.2 miEast (80°)19.6 mphMostly Cloudy
1:50 PM55.4 °F39.2 °F54 %29.95 in6.2 miEast (80°)19.6 mphMostly Cloudy
2:00 PM54.0 °F39.0 °F46 %29.97 in6.0 miEast (80°)19.6 mphPartly Cloudy
2:20 PM55.4 °F37.4 °F51 %29.95 in6.2 miEast (80°)19.6 mphMostly Cloudy
2:50 PM55.4 °F35.6 °F47 %29.95 in6.2 miEast (80°)19.6 mphMostly Cloudy
3:20 PM55.4 °F35.6 °F47 %29.95 in6.2 miEast (90°)19.6 mphMostly Cloudy
3:50 PM55.4 °F37.4 °F51 %29.95 in6.2 miEast (80°)20.7 mphMostly Cloudy
4:20 PM53.6 °F37.4 °F54 %29.92 in6.2 miEast (80°)18.4 mphMostly Cloudy
4:50 PM53.6 °F39.2 °F58 %29.92 in6.2 miEast (80°)16.1 mphMostly Cloudy
5:20 PM53.6 °F39.2 °F58 %29.92 in6.2 miENE (70°)15.0 mphMostly Cloudy
5:50 PM53.6 °F37.4 °F54 %29.92 in6.2 miEast (80°)16.1 mphMostly Cloudy
6:20 PM53.6 °F37.4 °F54 %29.92 in6.2 miENE (70°)16.1 mphMostly Cloudy
6:50 PM51.8 °F37.4 °F58 %29.92 in6.2 miENE (60°)15.0 mphMostly Cloudy
7:20 PM51.8 °F37.4 °F58 %29.92 in6.2 miNE (40°)11.5 mphMostly Cloudy
7:50 PM51.8 °F35.6 °F54 %29.92 in6.2 miENE (60°)12.7 mphMostly Cloudy
8:00 PM51.0 °F36.0 °F46 %29.91 in6.0 miENE (60°)12.7 mphPartly Cloudy
8:20 PM51.8 °F35.6 °F54 %29.92 in6.2 miNE (50°)10.4 mphMostly Cloudy
8:50 PM51.8 °F35.6 °F54 %29.89 in6.2 miENE (60°)13.8 mphMostly Cloudy
9:20 PM51.8 °F35.6 °F54 %29.89 in6.2 miNE (40°)11.5 mphMostly Cloudy
9:50 PM50.0 °F37.4 °F62 %29.86 in6.2 miNE (50°)12.7 mphMostly Cloudy
10:20 PM50.0 °F37.4 °F62 %29.86 in6.2 miNNE (30°)10.4 mphMostly Cloudy
10:50 PM48.2 °F39.2 °F71 %29.86 in6.2 miNorth (360°)8.1 mphMostly Cloudy
11:20 PM46.4 °F39.2 °F76 %29.86 in6.2 miNorth (10°)10.4 mphMostly Cloudy
11:50 PM46.4 °F39.2 °F76 %29.83 in6.2 miNNE (20°)6.9 mphMostly Cloudy
Hourly data recorded from LTAJ, located miles away from Gaziantep, Turkey







STORIES FROM OUR PARTNERS